Stations météo

Publicité
Dinard, France (7125): Température de l'air & dewpoint: 12.02.2020 20:00:00 - 18.02.2020 20:00:00 (CET)Dinard, France (7125): Température de l'air 5cm: 12.02.2020 20:00:00 - 18.02.2020 20:00:00 (CET)Dinard, France (7125): Température de l'air -20cm: 12.02.2020 20:00:00 - 18.02.2020 20:00:00 (CET)Dinard, France (7125): Vitesse du vent & gusts: 12.02.2020 20:00:00 - 18.02.2020 20:00:00 (CET)Dinard, France (7125): Direction du vent: 12.02.2020 20:00:00 - 18.02.2020 20:00:00 (CET)Dinard, France (7125): reduced air pressure: 12.02.2020 20:00:00 - 18.02.2020 20:00:00 (CET)Dinard, France (7125): visibility: 12.02.2020 20:00:00 - 18.02.2020 20:00:00 (CET)Dinard, France (7125): Ensoleillement: 12.02.2020 20:00:00 - 18.02.2020 20:00:00 (CET)Dinard, France (7125): Quantités de précipitations: 12.02.2020 20:00:00 - 18.02.2020 20:00:00 (CET)
Date & Time tt [°C] td [°C] tt 5cm [°C] tt -20cm [°C] ff [km/h] ff [knt] fx [km/h] fx [knt] dd ppp [hPa] vv [km] sd [min] rr [mm]
18.02.2020 20:00:00 8,5 5,8 7,8 8,4 25 13 38 21 SW 1025,5 46 0 0,0
18.02.2020 19:00:00 9,4 5,4 8,7 8,3 26 14 44 24 SW 1025,6 58 8 0,0
18.02.2020 18:00:00 10,0 4,8 9,7 8,2 29 16 54 29 SW 1025,9 55 21 0,0
18.02.2020 17:00:00 11,5 3,8 11,2 8,1 26 14 45 25 WSW 1025,8 55 10 0,0
18.02.2020 16:00:00 11,4 3,4 11,3 7,9 26 14 48 26 WSW 1026,4 57 28 0,0
18.02.2020 15:00:00 11,7 3,7 11,6 7,7 27 15 52 28 WSW 1026,9 54 34 0,0
18.02.2020 14:00:00 11,4 5,0 10,0 7,6 29 15 46 25 WSW 1027,7 20 36 0,0
18.02.2020 13:00:00 10,6 4,9 9,6 7,4 22 12 39 21 WSW 1028,4 39 41 0,0
18.02.2020 12:00:00 9,9 5,9 9,0 7,3 23 12 40 21 WSW 1028,4 48 47 0,0
18.02.2020 11:00:00 8,6 5,7 7,4 7,3 25 13 34 18 SW 1028,5 57 60 0,0
18.02.2020 10:00:00 6,6 4,6 5,5 7,4 21 12 32 17 SW 1028,6 60 60 0,0
18.02.2020 09:00:00 5,1 3,4 3,4 7,5 19 10 31 17 SW 1028,4 31 24 0,0
18.02.2020 08:00:00 4,4 2,9 3,3 7,6 18 10 27 14 SW 1027,9 32 0 0,0
18.02.2020 07:00:00 4,8 3,1 3,6 7,7 19 10 28 15 SW 1027,4 34 0 0,0
18.02.2020 06:00:00 4,9 3,1 3,7 7,8 21 11 31 17 SW 1027,4 33 0 0,0
18.02.2020 05:00:00 4,5 2,8 3,4 7,9 18 10 24 13 SW 1027,3 36 0 0,0
18.02.2020 04:00:00 4,4 2,7 3,4 8,0 17 9 29 16 SW 1027,4 35 0 0,0
18.02.2020 03:00:00 4,5 2,7 3,3 8,2 19 10 28 15 SW 1027,6 33 0 0,0
18.02.2020 02:00:00 4,2 2,4 3,4 8,3 19 10 29 16 SW 1027,6 36 0 0,0
18.02.2020 01:00:00 4,6 2,5 3,7 8,5 19 10 36 20 SW 1027,1 28 0 0,0
18.02.2020 00:00:00 5,4 2,7 4,2 8,6 21 11 32 18 WSW 1026,7 38 0 0,0
17.02.2020 23:00:00 5,4 3,4 4,0 8,5 24 13 35 19 WSW 1026,3 39 0 0,0
17.02.2020 22:00:00 5,0 3,0 3,9 8,9 19 10 29 16 SW 1025,8 47 0 0,0
17.02.2020 21:00:00 5,5 3,0 3,9 9,0 16 9 28 15 WSW 1024,9 53 0 0,0
17.02.2020 20:00:00 5,6 3,3 4,2 9,1 17 9 23 12 SW 1024,1 52 0 0,0
17.02.2020 19:00:00 6,8 3,4 5,1 9,0 16 9 31 17 WSW 1023,1 56 0 0,0
17.02.2020 18:00:00 7,1 4,1 5,7 9,1 16 9 51 28 WSW 1021,9 60 32 0,6
17.02.2020 17:00:00 8,7 5,1 5,5 9,0 19 10 52 28 WSW 1021,3 59 37 0,2
17.02.2020 16:00:00 8,0 3,3 6,6 8,9 28 15 54 29 W 1021,0 53 19 0,4
17.02.2020 15:00:00 10,7 5,0 7,1 8,8 25 13 55 30 WNW 1019,5 31 21 0,2
17.02.2020 14:00:00 8,7 5,8 8,2 8,7 30 16 65 35 WNW 1019,5 15 39 0,0
17.02.2020 13:00:00 10,9 4,4 10,1 8,7 32 17 57 31 WSW 1018,7 20 57 0,0
17.02.2020 12:00:00 9,7 5,1 7,1 8,7 29 16 55 30 WSW 1018,2 19 46 0,0
17.02.2020 11:00:00 7,6 4,7 5,9 8,7 28 15 54 29 SW 1017,9 33 31 0,2
17.02.2020 10:00:00 7,1 5,2 6,0 8,8 30 16 52 28 WSW 1017,5 4,0 41 0,4
17.02.2020 09:00:00 7,0 4,3 5,4 8,9 30 16 46 25 SW 1016,1 40 17 0,0
17.02.2020 08:00:00 6,3 3,8 5,5 9,0 23 12 36 19 SSW 1014,9 43 0 0,0
17.02.2020 07:00:00 6,6 3,9 5,7 9,1 23 12 36 19 SSW 1014,7 41 0 0,0
17.02.2020 06:00:00 6,6 4,3 5,4 9,2 22 12 44 24 SW 1014,7 30 0 0,0
17.02.2020 05:00:00 6,1 5,4 4,9 9,4 15 8 42 23 SSW 1014,3 16 0 0,0
17.02.2020 04:00:00 6,9 5,7 5,9 9,1 19 10 30 16 SSW 1014,6 17 0 0,0
17.02.2020 03:00:00 7,2 6,0 5,9 9,7 19 10 32 17 SSW 1014,8 16 0 0,0
17.02.2020 02:00:00 7,0 5,6 6,0 9,8 18 10 31 17 SSW 1014,8 17 0 0,0
17.02.2020 01:00:00 7,5 5,5 6,5 10,0 24 13 36 20 SW 1014,8 19 0 0,0
17.02.2020 00:00:00 7,6 5,7 6,7 10,1 22 12 36 19 SW 1014,1 20 0 0,0
16.02.2020 23:00:00 7,7 6,0 6,7 10,3 24 13 39 21 SW 1013,3 32 0 0,0
16.02.2020 22:00:00 7,8 5,6 6,9 10,4 25 14 44 24 WSW 1012,4 41 0 0,0
16.02.2020 21:00:00 8,0 5,5 7,3 10,6 25 13 56 30 WSW 1011,5 60 0 0,0
16.02.2020 20:00:00 8,9 6,2 7,9 10,7 34 18 54 29 WSW 1010,7 60 0 0,0
16.02.2020 19:00:00 8,9 6,9 7,7 10,7 29 16 48 26 WSW 1009,3 60 0 0,0
16.02.2020 18:00:00 9,1 6,5 7,7 10,9 32 18 67 36 WSW 1007,6 15 0 0,4
16.02.2020 17:00:00 8,8 8,0 8,2 11,0 23 12 37 20 WSW 1006,9 20 0 0,6
16.02.2020 16:00:00 8,4 8,1 8,2 10,9 27 15 83 45 WNW 1006,2 4,8 0 4,1
16.02.2020 15:00:00 14,4 12,8 13,4 10,8 54 29 108 58 SSW 1001,8 11 0 0,0
16.02.2020 14:00:00 14,4 12,8 13,4 10,8 55 30 108 58 SSW 1001,1 10 0 0,0
16.02.2020 13:00:00 14,8 12,3 14,2 10,7 64 34 106 57 SSW 1001,8 15 0 0,0
16.02.2020 12:00:00 14,8 12,5 13,9 10,6 56 30 98 53 SW 1002,2 14 0 0,0
16.02.2020 11:00:00 14,4 12,6 13,3 10,5 54 29 93 50 SW 1002,6 13 0 0,0
16.02.2020 10:00:00 14,3 12,7 12,9 10,5 48 26 86 46 SW 1003,2 16 0 0,0
16.02.2020 09:00:00 14,0 12,7 12,6 10,4 47 25 85 46 SW 1002,9 14 0 0,0
16.02.2020 08:00:00 13,5 12,4 12,5 10,4 44 24 85 46 SW 1003,2 6 0 0,0
16.02.2020 07:00:00 13,5 12,2 12,3 10,3 46 25 90 49 SW 1003,7 10 0 0,0
16.02.2020 06:00:00 13,3 12,0 12,3 10,3 52 28 98 53 SSW 1004,0 7 0 0,0
16.02.2020 05:00:00 13,4 11,8 12,1 10,2 51 28 86 47 SSW 1004,3 20 0 0,0
16.02.2020 04:00:00 13,3 12,0 12,2 10,1 48 26 81 44 SSW 1005,1 15 0 0,4
16.02.2020 03:00:00 13,2 12,1 12,1 10,1 45 24 78 42 SSW 1005,9 16 0 0,0
16.02.2020 02:00:00 13,2 11,9 12,1 10,1 43 23 76 41 SSW 1006,3 51 0 0,2
16.02.2020 01:00:00 12,9 11,8 12,0 10,2 42 23 75 40 SSW 1007,0 18 0 0,6
16.02.2020 00:00:00 12,9 11,6 12,0 9,9 44 24 77 42 SSW 1007,5 15 0 0,0
15.02.2020 23:00:00 13,0 11,2 12,2 9,9 42 23 72 39 SSW 1008,2 60 0 0,0
15.02.2020 22:00:00 12,6 11,2 11,8 9,9 42 23 74 40 SSW 1009,0 37 0 0,0
15.02.2020 21:00:00 12,5 11,1 11,8 9,8 47 25 82 44 SSW 1009,5 18 0 0,0
15.02.2020 20:00:00 12,6 10,8 11,8 9,8 44 24 74 40 SSW 1009,6 19 0 0,0
15.02.2020 19:00:00 12,7 10,4 11,7 9,8 53 29 84 45 SSW 1009,0 48 0 0,0
15.02.2020 18:00:00 12,8 10,5 11,2 9,7 49 26 86 46 SSW 1009,5 50 0 0,2
15.02.2020 17:00:00 12,8 10,3 11,2 9,7 43 23 84 45 SSW 1010,8 40 0 0,2
15.02.2020 16:00:00 12,9 10,3 11,8 9,6 45 24 76 41 SSW 1010,7 43 0 0,0
15.02.2020 15:00:00 12,8 10,2 11,4 9,5 44 24 69 38 SSW 1011,2 48 0 0,0
15.02.2020 14:00:00 12,3 10,9 11,3 9,5 39 21 68 37 SSW 1012,4 37 0 0,0
15.02.2020 13:00:00 12,1 11,0 11,5 9,4 41 22 67 36 SSW 1013,8 7 0 0,0
15.02.2020 12:00:00 12,5 10,4 11,2 9,3 40 22 77 42 SSW 1014,2 37 0 0,0
15.02.2020 11:00:00 12,7 9,7 11,9 9,2 42 23 86 46 SSW 1015,0 29 0 0,0
15.02.2020 10:00:00 12,6 9,6 11,8 9,2 44 24 72 39 SSW 1015,6 42 0 0,0
15.02.2020 09:00:00 12,1 9,8 11,5 9,2 35 19 58 31 SSW 1016,1 49 0 0,0
15.02.2020 08:00:00 11,8 10,4 11,2 9,1 25 13 39 21 S 1016,4 26 0 0,0
15.02.2020 07:00:00 11,7 10,1 10,7 9,1 28 15 42 23 S 1016,9 32 0 0,0
15.02.2020 06:00:00 11,5 10,1 10,4 9,1 27 15 40 22 SSW 1017,6 26 0 0,0
15.02.2020 05:00:00 11,3 10,4 10,5 9,0 23 12 38 20 SSW 1017,6 20 0 0,0
15.02.2020 04:00:00 11,9 10,6 11,6 9,0 24 13 37 20 SSW 1018,6 20 0 0,0
15.02.2020 03:00:00 11,9 10,6 11,6 8,9 24 13 37 20 SSW 1018,9 20 0 0,0
15.02.2020 02:00:00 11,9 10,5 11,3 8,9 21 12 35 19 SSW 1019,5 28 0 0,0
15.02.2020 01:00:00 11,7 10,6 11,3 8,8 16 9 31 17 SSW 1019,8 19 0 0,0
15.02.2020 00:00:00 11,7 10,6 11,1 8,8 21 12 39 21 SSW 1020,2 20 0 0,0
14.02.2020 23:00:00 11,4 10,5 11,0 8,8 26 14 40 22 SSW 1020,3 16 0 0,0
14.02.2020 22:00:00 11,2 9,9 10,7 8,7 27 15 44 24 SSW 1020,8 16 0 0,0
14.02.2020 21:00:00 10,9 8,8 10,2 8,7 20 11 35 19 SSW 1021,4 17 0 0,0
14.02.2020 20:00:00 10,7 7,9 9,7 8,7 21 11 37 20 S 1021,4 17 0 0,0
14.02.2020 19:00:00 10,5 7,4 9,8 8,7 16 9 31 17 S 1021,4 17 2 0,0
14.02.2020 18:00:00 11,5 7,4 10,9 8,6 18 10 32 17 SSW 1021,8 16 4 0,0
14.02.2020 17:00:00 11,9 7,4 11,6 8,5 23 12 46 25 SW 1021,6 19 0 0,0
14.02.2020 16:00:00 12,4 7,5 12,6 8,4 28 15 51 28 SSW 1020,9 20 26 0,0
14.02.2020 15:00:00 12,8 7,5 13,1 8,1 30 16 50 27 SSW 1021,3 18 44 0,0
14.02.2020 14:00:00 12,3 7,6 12,9 8,0 25 14 45 24 SW 1021,7 18 8 0,0
14.02.2020 13:00:00 12,8 7,9 12,6 7,8 26 14 41 22 SSW 1022,0 16 60 0,0
14.02.2020 12:00:00 11,2 7,9 10,3 7,7 21 12 37 20 SSW 1022,6 12 51 0,0
14.02.2020 11:00:00 9,6 7,2 8,7 7,8 18 10 32 17 SSW 1022,6 15 53 0,0
14.02.2020 10:00:00 7,5 6,3 5,2 7,8 16 9 23 12 S 1022,6 13 52 0,0
14.02.2020 09:00:00 5,9 5,3 4,6 7,9 12 7 21 11 SSW 1022,4 12 0 0,0
14.02.2020 08:00:00 6,1 5,5 4,7 8,0 16 9 22 12 SW 1021,9 13 0 0,0
14.02.2020 07:00:00 6,3 5,7 4,7 8,1 16 9 23 12 SW 1021,3 13 0 0,0
14.02.2020 06:00:00 5,9 4,9 4,4 8,1 14 7 19 11 SW 1020,8 15 0 0,0
14.02.2020 05:00:00 6,6 5,4 5,3 8,2 14 8 23 12 SW 1019,9 17 0 0,0
14.02.2020 04:00:00 8,4 5,9 7,4 8,2 13 7 24 13 WSW 1019,8 19 0 0,0
14.02.2020 03:00:00 9,2 6,5 8,6 8,2 13 7 24 13 WSW 1019,3 18 0 0,0
14.02.2020 02:00:00 9,4 5,8 8,8 8,3 16 8 33 18 W 1018,7 29 0 0,0
14.02.2020 01:00:00 9,6 6,1 9,1 8,3 18 10 44 24 W 1017,8 20 0 0,0
14.02.2020 00:00:00 9,8 6,0 9,1 8,3 23 12 44 24 W 1017,3 20 0 0,0
13.02.2020 23:00:00 9,6 6,3 8,6 8,3 25 13 45 25 W 1016,4 18 0 0,0
13.02.2020 22:00:00 9,5 6,6 8,7 8,3 27 15 51 27 W 1015,3 13 0 -
13.02.2020 21:00:00 9,8 6,0 8,8 8,4 29 16 53 29 W 1013,6 20 0 0,0
13.02.2020 20:00:00 9,5 6,6 8,2 8,3 29 16 48 26 W 1012,2 18 0 0,0
13.02.2020 19:00:00 9,2 7,3 8,2 8,3 33 18 61 33 W 1010,5 11 0 0,0
13.02.2020 18:00:00 9,8 7,4 9,4 8,2 31 17 76 41 W 1008,6 15 23 0,0
13.02.2020 17:00:00 10,3 7,7 8,7 8,1 42 23 67 36 W 1006,7 13 0 0,0
13.02.2020 16:00:00 9,9 8,2 9,0 8,0 36 20 76 41 W 1004,9 7 0 0,2
13.02.2020 15:00:00 10,0 8,3 9,0 7,9 34 19 81 44 W 1003,6 4,9 20 0,2
13.02.2020 14:00:00 11,1 7,4 8,9 7,8 40 22 90 49 WSW 1002,3 7 14 0,0
13.02.2020 13:00:00 10,8 6,0 10,0 7,7 50 27 91 49 WSW 1001,3 20 17 0,0
13.02.2020 12:00:00 11,0 5,7 7,5 7,7 45 25 78 42 WSW 1001,6 19 34 0,0
13.02.2020 11:00:00 10,3 4,6 8,9 7,6 40 22 78 42 WSW 1001,9 17 20 0,0
13.02.2020 10:00:00 9,4 4,6 8,0 7,7 38 21 72 39 SW 1001,9 16 56 0,0
13.02.2020 09:00:00 8,8 4,2 7,8 7,7 35 19 59 32 WSW 1002,0 14 0 0,0
13.02.2020 08:00:00 9,0 5,7 7,8 7,6 30 16 62 34 WSW 1001,9 14 0 0,0
13.02.2020 07:00:00 10,0 5,8 8,1 7,5 44 24 88 47 WSW 1001,7 20 0 1,2
13.02.2020 06:00:00 11,2 10,1 9,1 7,4 39 21 65 35 SSW 1000,3 33 0 0,0
13.02.2020 05:00:00 9,7 8,9 8,1 7,4 41 22 69 37 S 1001,9 16 0 0,0
13.02.2020 04:00:00 8,5 7,7 7,1 7,4 39 21 61 33 S 1004,3 26 0 0,0
13.02.2020 03:00:00 7,7 6,2 7,0 7,4 38 21 62 34 S 1006,8 20 0 0,0
13.02.2020 02:00:00 7,8 5,8 6,9 7,4 34 18 54 29 S 1008,8 45 0 0,0
13.02.2020 01:00:00 7,1 5,1 6,5 7,5 22 12 38 20 S 1011,5 47 0 0,0
13.02.2020 00:00:00 6,7 4,9 6,2 7,5 24 13 39 21 S 1013,0 46 0 0,0
12.02.2020 23:00:00 6,6 4,9 5,5 7,6 24 13 36 19 S 1014,6 43 0 0,0
12.02.2020 22:00:00 6,5 4,5 5,7 7,6 19 11 31 17 S 1016,1 12 0 0,0
12.02.2020 21:00:00 7,1 5,2 6,3 7,6 16 9 29 16 S 1017,2 55 0 0,0
12.02.2020 20:00:00 7,1 5,4 6,0 7,6 14 8 32 17 SSW 1018,1 48 0 0,0

tt = Température de l'air
td = dewpoint
tt 5cm = Température de l'air 5cm
tt -20cm = Température de l'air -20cm
ff = Vitesse du vent
fx = gusts
dd = Direction du vent
ppp = reduced air pressure
vv = visibility
sd = Ensoleillement
rr = Quantités de précipitations

stations d'obs. à proximité